Sioux Falls, SD

7:18 PM CDT on March 28, 2017 (GMT -0500)
Foss

Weather History for KFSD - December, 2013

Change the Weather History Date:

Thursday, December 19, 2013

  Actual Average Record
Temperature  
Mean Temperature 16 °F 18 °F  
Max Temperature 25 °F 27 °F 54 °F (1894)
Min Temperature 6 °F 9 °F -24 °F (1983)
Degree Days  
Heating Degree Days 49 47  
Month to date heating degree days 985 845  
Since 1 July heating degree days 2606 2557  
Cooling Degree Days 0 0  
Month to date cooling degree days 0 0  
Year to date cooling degree days 787 690  
Moisture  
Dew Point 6 °F    
Average Humidity 83    
Maximum Humidity 92    
Minimum Humidity 73    
Precipitation  
Precipitation T in 0.02 in 0.77 in (1902)
Month to date precipitation 0.82 0.46  
Year to date precipitation 25.48 26.15  
Snow  
Snow T in 0.30 in 5.40 in (1960)
Month to date snowfall 9.1 5.2  
Since 1 July snowfall 17.0 13.9  
Snow Depth 3.00 in    
Sea Level Pressure  
Sea Level Pressure 30.00 in    
Wind  
Wind Speed 15 mph (NNE)    
Max Wind Speed 23 mph    
Max Gust Speed 28 mph    
Visibility 9 miles    
Events Snow    
T = Trace of Precipitation, MM = Missing Value Source: NWS Daily Summary

Daily Weather History Graph

Daily Weather History Graph

Search for Another Location

Airport or City:

Trip Planner

Search our weather history database for the weather conditions in past years. The results will help you decide how hot, cold, wet, or windy it might be!

Date:

Astronomy

Dec. 19, 2013 Rise Set
Actual Time 7:56 AM CST 4:52 PM CST
Civil Twilight 7:23 AM CST 5:25 PM CST
Nautical Twilight 6:46 AM CST 6:01 PM CST
Astronomical Twilight 6:12 AM CST 6:36 PM CST
Moon 7:23 PM CST (12/19) 9:12 AM CST (12/19)
Length of Visible Light 10h 02m
Length of Day
8h 56m
Waning Gibbous, 95% of the Moon is Illuminated
Dec 19
Waning Gibbous
Dec 25
Last Quarter
Jan 1
New
Jan 7
First Quarter
Jan 15
Full

Hourly Weather History & Observations

Time (CST) Temp. Windchill Dew Point Humidity Pressure Visibility Wind Dir Wind Speed Gust Speed Precip Events Conditions
12:56 AM 25.0 °F 13.6 °F 21.9 °F 88% 29.88 in 10.0 mi NNE 12.7 mph - N/A   Clear
1:56 AM 21.9 °F 7.3 °F 18.0 °F 85% 29.89 in 10.0 mi NE 18.4 mph 23.0 mph N/A   Scattered Clouds
2:04 AM 21.9 °F 6.9 °F 19.0 °F 89% 29.85 in 10.0 mi NNE 19.6 mph - N/A   Mostly Cloudy
2:56 AM 21.9 °F 6.5 °F 19.0 °F 89% 29.91 in 10.0 mi NNE 20.7 mph - N/A   Overcast
3:56 AM 19.9 °F 4.8 °F 17.1 °F 89% 29.94 in 8.0 mi NNE 18.4 mph - N/A   Overcast
4:46 AM 15.1 °F -1.6 °F 10.9 °F 84% 29.91 in 10.0 mi NE 18.4 mph 26.5 mph N/A   Overcast
4:56 AM 15.1 °F -0.1 °F 10.0 °F 80% 29.97 in 10.0 mi NNE 15.0 mph 25.3 mph N/A   Overcast
5:56 AM 10.9 °F -7.5 °F 6.1 °F 81% 29.99 in 10.0 mi NNE 19.6 mph - N/A   Mostly Cloudy
6:56 AM 10.0 °F -8.1 °F 5.0 °F 80% 30.00 in 10.0 mi North 18.4 mph - N/A   Overcast
7:20 AM 9.0 °F -7.3 °F 3.9 °F 80% 29.93 in 10.0 mi NNE 13.8 mph 26.5 mph N/A   Overcast
7:56 AM 8.1 °F -5.3 °F 3.9 °F 83% 30.03 in 10.0 mi NE 9.2 mph - N/A   Overcast
8:02 AM 8.1 °F -10.2 °F 3.9 °F 83% 29.96 in 10.0 mi NE 17.3 mph - N/A   Overcast
8:42 AM 7.0 °F -9.1 °F 1.9 °F 80% 29.97 in 10.0 mi NE 12.7 mph - N/A   Overcast
8:56 AM 7.0 °F -10.4 °F 1.9 °F 80% 30.04 in 10.0 mi NNE 15.0 mph - N/A   Overcast
9:27 AM 6.1 °F -12.8 °F 1.9 °F 83% 29.96 in 10.0 mi NE 17.3 mph - N/A   Overcast
9:56 AM 6.1 °F -12.8 °F 1.9 °F 83% 30.05 in 9.0 mi NE 17.3 mph - N/A   Overcast
10:56 AM 7.0 °F -9.8 °F 1.9 °F 80% 30.06 in 9.0 mi NNE 13.8 mph 23.0 mph 0.00 in Snow Light Snow
11:56 AM 9.0 °F -8.5 °F 3.9 °F 80% 30.04 in 5.0 mi NE 16.1 mph - 0.00 in Snow Light Snow
12:56 PM 10.0 °F -7.1 °F 5.0 °F 80% 30.01 in 8.0 mi NNE 16.1 mph - 0.00 in Snow Light Snow
1:56 PM 10.0 °F -8.1 °F 5.0 °F 80% 30.00 in 10.0 mi NNE 18.4 mph - 0.00 in   Overcast
2:19 PM 10.0 °F -8.1 °F 5.0 °F 80% 29.91 in 10.0 mi NNE 18.4 mph - N/A   Overcast
2:56 PM 10.0 °F -7.6 °F 5.0 °F 80% 29.99 in 10.0 mi NNE 17.3 mph - N/A   Overcast
3:56 PM 10.0 °F -6.5 °F 3.9 °F 76% 30.01 in 10.0 mi NNE 15.0 mph 24.2 mph N/A   Overcast
4:25 PM 10.0 °F -5.9 °F 3.9 °F 76% 29.94 in 10.0 mi NNE 13.8 mph 23.0 mph N/A   Overcast
4:50 PM 10.4 °F -4.1 °F 3.2 °F 73% 29.95 in 10.0 mi NNE 11.5 mph 20.7 mph N/A   Overcast
4:56 PM 10.0 °F -4.5 °F 3.9 °F 76% 30.04 in 10.0 mi NNE 11.5 mph 20.7 mph N/A   Overcast
5:56 PM 9.0 °F -7.9 °F 3.9 °F 80% 30.06 in 9.0 mi NNE 15.0 mph - 0.00 in Snow Light Snow
6:04 PM 9.0 °F -8.5 °F 3.0 °F 77% 29.96 in 9.0 mi NNE 16.1 mph 24.2 mph 0.00 in Snow Light Snow
6:17 PM 9.0 °F -8.5 °F 3.0 °F 77% 29.95 in 9.0 mi NNE 16.1 mph 25.3 mph 0.00 in Snow Light Snow
6:56 PM 8.1 °F -10.7 °F 1.9 °F 76% 30.06 in 10.0 mi NE 18.4 mph - 0.00 in   Overcast
7:56 PM 7.0 °F -8.3 °F 1.9 °F 80% 30.07 in 10.0 mi NE 11.5 mph 21.9 mph N/A   Overcast
8:56 PM 7.0 °F -11.0 °F 1.9 °F 80% 30.08 in 10.0 mi NE 16.1 mph 19.6 mph N/A   Overcast
9:56 PM 7.0 °F -8.3 °F 1.0 °F 77% 30.12 in 9.0 mi North 11.5 mph - 0.00 in Snow Light Snow
10:56 PM 7.0 °F -7.5 °F 1.9 °F 80% 30.10 in 9.0 mi North 10.4 mph - 0.00 in Snow Light Snow
11:56 PM 7.0 °F -6.6 °F 1.9 °F 80% 30.10 in 6.0 mi North 9.2 mph - 0.00 in Snow Light Snow